カタログに戻る

FENGYUN 1C DEB

運用中PO
NORAD 36258·DEBRIS·🇨🇳 China

打ち上げ May 10, 1999 から Taiyuan Satellite Launch Center

Loading…

次のパス (今後24時間)

TLE

最新Source: Space-Track

元期: Sep 13, 2026, 21:54 UTC

1 36258U 99025DWK 26256.91310495  .00001194  00000-0  14573-3 0  9990
2 36258  99.0535 324.7399 0168805 347.9272  11.7911 14.76191015948800

AllMySatでFENGYUN 1C DEBをリアルタイム追跡

Download on the App Store